PRIVATE WETTERSTATION BILLIGHEIM-ALLFELD                       ZURCK
Wetterdaten: Sonntag, 19.01.2014
Datum Zeit Temp. A. Temp. A. min Temp. A. max Feuchte A. Luftdruck Regen Wind Richtung Richtung Sonnenschein ET Solar Taupunkt Windchill Windben Empfang
19.01.2014 00:00 2,4 C 2,3 C 2,4 C 89 % 1000,4 hPa 0,0 l/m 0,0 km/h (0 Bft) O-NO 67 0 min 0,000 mm 0 W/m 0,8 C 2,4 C 3,2 km/h (1 Bft) 100 %
19.01.2014 00:10 2,4 C 2,4 C 2,4 C 89 % 1000,4 hPa 0,0 l/m 1,6 km/h (1 Bft) NO 45 0 min 0,000 mm 0 W/m 0,8 C 2,4 C 6,4 km/h (2 Bft) 100 %
19.01.2014 00:20 2,3 C 2,3 C 2,4 C 89 % 1000,3 hPa 0,0 l/m 0,0 km/h (0 Bft) NO 45 0 min 0,000 mm 0 W/m 0,7 C 2,3 C 6,4 km/h (2 Bft) 100 %
19.01.2014 00:30 2,3 C 2,3 C 2,3 C 89 % 1000,1 hPa 0,0 l/m 1,6 km/h (1 Bft) NO 45 0 min 0,000 mm 0 W/m 0,7 C 2,3 C 8,0 km/h (2 Bft) 90 %
19.01.2014 00:40 2,3 C 2,3 C 2,3 C 89 % 1000,2 hPa 0,0 l/m 1,6 km/h (1 Bft) NO 45 0 min 0,000 mm 0 W/m 0,7 C 2,3 C 17,7 km/h (3 Bft) 100 %
19.01.2014 00:50 2,3 C 2,3 C 2,3 C 89 % 1000,0 hPa 0,0 l/m 1,6 km/h (1 Bft) NO 45 0 min 0,000 mm 0 W/m 0,7 C 2,3 C 6,4 km/h (2 Bft) 100 %
19.01.2014 01:00 2,3 C 2,3 C 2,3 C 89 % 999,9 hPa 0,0 l/m 1,6 km/h (1 Bft) NO 45 0 min 0,000 mm 0 W/m 0,7 C 2,3 C 6,4 km/h (2 Bft) 100 %
19.01.2014 01:10 2,2 C 2,2 C 2,3 C 89 % 1000,0 hPa 0,0 l/m 1,6 km/h (1 Bft) NO 45 0 min 0,000 mm 0 W/m 0,6 C 2,2 C 9,7 km/h (2 Bft) 100 %
19.01.2014 01:20 2,2 C 2,2 C 2,2 C 89 % 999,8 hPa 0,0 l/m 0,0 km/h (0 Bft) NO 45 0 min 0,000 mm 0 W/m 0,6 C 2,2 C 4,8 km/h (1 Bft) 100 %
19.01.2014 01:30 2,2 C 2,2 C 2,3 C 89 % 999,9 hPa 0,0 l/m 0,0 km/h (0 Bft) NO 45 0 min 0,000 mm 0 W/m 0,6 C 2,2 C 4,8 km/h (1 Bft) 100 %
19.01.2014 01:40 2,3 C 2,3 C 2,3 C 89 % 999,9 hPa 0,0 l/m 0,0 km/h (0 Bft) NO 45 0 min 0,000 mm 0 W/m 0,7 C 2,3 C 4,8 km/h (1 Bft) 100 %
19.01.2014 01:50 2,3 C 2,3 C 2,3 C 89 % 999,9 hPa 0,0 l/m 0,0 km/h (0 Bft) O-NO 67 0 min 0,000 mm 0 W/m 0,7 C 2,3 C 4,8 km/h (1 Bft) 100 %
19.01.2014 02:00 2,3 C 2,3 C 2,3 C 89 % 999,8 hPa 0,0 l/m 0,0 km/h (0 Bft) NO 45 0 min 0,000 mm 0 W/m 0,7 C 2,3 C 3,2 km/h (1 Bft) 100 %
19.01.2014 02:10 2,3 C 2,3 C 2,3 C 89 % 999,7 hPa 0,0 l/m 0,0 km/h (0 Bft) N-NO 22 0 min 0,000 mm 0 W/m 0,7 C 2,3 C 4,8 km/h (1 Bft) 100 %
19.01.2014 02:20 2,3 C 2,3 C 2,3 C 89 % 999,7 hPa 0,0 l/m 0,0 km/h (0 Bft) O 90 0 min 0,000 mm 0 W/m 0,7 C 2,3 C 1,6 km/h (1 Bft) 100 %
19.01.2014 02:30 2,3 C 2,3 C 2,3 C 89 % 999,6 hPa 0,0 l/m 1,6 km/h (1 Bft) NO 45 0 min 0,000 mm 0 W/m 0,7 C 2,3 C 8,0 km/h (2 Bft) 100 %
19.01.2014 02:40 2,3 C 2,3 C 2,3 C 89 % 999,5 hPa 0,0 l/m 0,0 km/h (0 Bft) N-NO 22 0 min 0,000 mm 0 W/m 0,7 C 2,3 C 3,2 km/h (1 Bft) 100 %
19.01.2014 02:50 2,4 C 2,3 C 2,4 C 89 % 999,6 hPa 0,0 l/m 0,0 km/h (0 Bft) NW 315 0 min 0,000 mm 0 W/m 0,8 C 2,4 C 3,2 km/h (1 Bft) 100 %
19.01.2014 03:00 2,4 C 2,4 C 2,4 C 89 % 999,6 hPa 0,0 l/m 0,0 km/h (0 Bft) O-SO 112 0 min 0,000 mm 0 W/m 0,8 C 2,4 C 4,8 km/h (1 Bft) 100 %
19.01.2014 03:10 2,5 C 2,4 C 2,5 C 89 % 999,6 hPa 0,0 l/m 0,0 km/h (0 Bft) SO 135 0 min 0,000 mm 0 W/m 0,9 C 2,5 C 3,2 km/h (1 Bft) 99 %
19.01.2014 03:20 2,6 C 2,5 C 2,6 C 89 % 999,6 hPa 0,0 l/m 0,0 km/h (0 Bft) N-NO 22 0 min 0,000 mm 0 W/m 1,0 C 2,6 C 8,0 km/h (2 Bft) 100 %
19.01.2014 03:30 2,6 C 2,6 C 2,6 C 89 % 999,6 hPa 0,0 l/m 0,0 km/h (0 Bft) O-SO 112 0 min 0,000 mm 0 W/m 1,0 C 2,6 C 4,8 km/h (1 Bft) 100 %
19.01.2014 03:40 2,6 C 2,6 C 2,6 C 89 % 999,5 hPa 0,0 l/m 0,0 km/h (0 Bft) N 0 0 min 0,000 mm 0 W/m 1,0 C 2,6 C 0,0 km/h (0 Bft) 100 %
19.01.2014 03:50 2,6 C 2,6 C 2,6 C 89 % 999,4 hPa 0,0 l/m 0,0 km/h (0 Bft) NO 45 0 min 0,000 mm 0 W/m 1,0 C 2,6 C 8,0 km/h (2 Bft) 100 %
19.01.2014 04:00 2,7 C 2,6 C 2,7 C 89 % 999,6 hPa 0,0 l/m 0,0 km/h (0 Bft) O-NO 67 0 min 0,000 mm 0 W/m 1,1 C 2,7 C 4,8 km/h (1 Bft) 100 %
19.01.2014 04:10 2,7 C 2,6 C 2,7 C 89 % 999,6 hPa 0,0 l/m 0,0 km/h (0 Bft) O-NO 67 0 min 0,000 mm 0 W/m 1,1 C 2,7 C 1,6 km/h (1 Bft) 100 %
19.01.2014 04:20 2,7 C 2,7 C 2,7 C 89 % 999,6 hPa 0,0 l/m 0,0 km/h (0 Bft) O-NO 67 0 min 0,000 mm 0 W/m 1,1 C 2,7 C 1,6 km/h (1 Bft) 100 %
19.01.2014 04:30 2,7 C 2,7 C 2,7 C 89 % 999,5 hPa 0,0 l/m 0,0 km/h (0 Bft) O 90 0 min 0,000 mm 0 W/m 1,1 C 2,7 C 4,8 km/h (1 Bft) 100 %
19.01.2014 04:40 2,7 C 2,7 C 2,7 C 89 % 999,5 hPa 0,0 l/m 0,0 km/h (0 Bft) O 90 0 min 0,000 mm 0 W/m 1,1 C 2,7 C 4,8 km/h (1 Bft) 100 %
19.01.2014 04:50 2,7 C 2,7 C 2,8 C 89 % 999,5 hPa 0,0 l/m 0,0 km/h (0 Bft) O-SO 112 0 min 0,000 mm 0 W/m 1,1 C 2,7 C 4,8 km/h (1 Bft) 100 %
19.01.2014 05:00 2,7 C 2,7 C 2,8 C 89 % 999,5 hPa 0,0 l/m 0,0 km/h (0 Bft) O-SO 112 0 min 0,000 mm 0 W/m 1,1 C 2,7 C 3,2 km/h (1 Bft) 100 %
19.01.2014 05:10 2,7 C 2,7 C 2,7 C 89 % 999,4 hPa 0,0 l/m 0,0 km/h (0 Bft) O-NO 67 0 min 0,000 mm 0 W/m 1,1 C 2,7 C 3,2 km/h (1 Bft) 100 %
19.01.2014 05:20 2,7 C 2,7 C 2,7 C 89 % 999,3 hPa 0,0 l/m 1,6 km/h (1 Bft) O-SO 112 0 min 0,000 mm 0 W/m 1,1 C 2,7 C 6,4 km/h (2 Bft) 100 %
19.01.2014 05:30 2,6 C 2,6 C 2,7 C 89 % 999,2 hPa 0,0 l/m 0,0 km/h (0 Bft) O-SO 112 0 min 0,000 mm 0 W/m 1,0 C 2,6 C 4,8 km/h (1 Bft) 100 %
19.01.2014 05:40 2,5 C 2,5 C 2,6 C 89 % 999,1 hPa 0,0 l/m 0,0 km/h (0 Bft) O 90 0 min 0,000 mm 0 W/m 0,9 C 2,5 C 6,4 km/h (2 Bft) 90 %
19.01.2014 05:50 2,5 C 2,4 C 2,6 C 89 % 999,0 hPa 0,0 l/m 0,0 km/h (0 Bft) O 90 0 min 0,000 mm 0 W/m 0,9 C 2,5 C 6,4 km/h (2 Bft) 100 %
19.01.2014 06:00 2,4 C 2,4 C 2,5 C 89 % 999,0 hPa 0,0 l/m 0,0 km/h (0 Bft) O 90 0 min 0,000 mm 0 W/m 0,8 C 2,4 C 1,6 km/h (1 Bft) 100 %
19.01.2014 06:10 2,4 C 2,4 C 2,4 C 89 % 999,0 hPa 0,0 l/m 1,6 km/h (1 Bft) O-SO 112 0 min 0,000 mm 0 W/m 0,8 C 2,4 C 6,4 km/h (2 Bft) 100 %
19.01.2014 06:20 2,4 C 2,4 C 2,4 C 89 % 998,9 hPa 0,0 l/m 0,0 km/h (0 Bft) O 90 0 min 0,000 mm 0 W/m 0,8 C 2,4 C 4,8 km/h (1 Bft) 100 %
19.01.2014 06:30 2,4 C 2,4 C 2,4 C 89 % 999,0 hPa 0,0 l/m 1,6 km/h (1 Bft) SO 135 0 min 0,000 mm 0 W/m 0,8 C 2,4 C 8,0 km/h (2 Bft) 100 %
19.01.2014 06:40 2,4 C 2,4 C 2,4 C 89 % 999,0 hPa 0,0 l/m 0,0 km/h (0 Bft) O 90 0 min 0,000 mm 0 W/m 0,8 C 2,4 C 6,4 km/h (2 Bft) 100 %
19.01.2014 06:50 2,4 C 2,4 C 2,4 C 89 % 999,0 hPa 0,0 l/m 0,0 km/h (0 Bft) NO 45 0 min 0,000 mm 0 W/m 0,8 C 2,4 C 3,2 km/h (1 Bft) 99 %
19.01.2014 07:00 2,4 C 2,4 C 2,4 C 89 % 999,1 hPa 0,0 l/m 0,0 km/h (0 Bft) S-SO 157 0 min 0,000 mm 0 W/m 0,8 C 2,4 C 1,6 km/h (1 Bft) 99 %
19.01.2014 07:10 2,4 C 2,4 C 2,4 C 89 % 999,2 hPa 0,0 l/m 0,0 km/h (0 Bft) N 0 0 min 0,000 mm 0 W/m 0,8 C 2,4 C 0,0 km/h (0 Bft) 98 %
19.01.2014 07:20 2,4 C 2,4 C 2,4 C 89 % 999,3 hPa 0,0 l/m 0,0 km/h (0 Bft) O-SO 112 0 min 0,000 mm 0 W/m 0,8 C 2,4 C 6,4 km/h (2 Bft) 88 %
19.01.2014 07:30 2,4 C 2,4 C 2,4 C 89 % 999,2 hPa 0,0 l/m 0,0 km/h (0 Bft) SW 225 0 min 0,000 mm 0 W/m 0,8 C 2,4 C 1,6 km/h (1 Bft) 97 %
19.01.2014 07:40 2,4 C 2,4 C 2,4 C 89 % 999,3 hPa 0,0 l/m 0,0 km/h (0 Bft) S 180 0 min 0,000 mm 0 W/m 0,8 C 2,4 C 3,2 km/h (1 Bft) 98 %
19.01.2014 07:50 2,3 C 2,3 C 2,4 C 89 % 999,4 hPa 0,0 l/m 0,0 km/h (0 Bft) S 180 0 min 0,000 mm 0 W/m 0,7 C 2,3 C 4,8 km/h (1 Bft) 98 %
19.01.2014 08:00 2,3 C 2,3 C 2,3 C 89 % 999,4 hPa 0,0 l/m 0,0 km/h (0 Bft) N 0 0 min 0,000 mm 0 W/m 0,7 C 2,3 C 0,0 km/h (0 Bft) 97 %
19.01.2014 08:10 2,3 C 2,3 C 2,3 C 89 % 999,4 hPa 0,0 l/m 0,0 km/h (0 Bft) S-SO 157 0 min 0,000 mm 0 W/m 0,7 C 2,3 C 1,6 km/h (1 Bft) 97 %
19.01.2014 08:20 2,2 C 2,2 C 2,3 C 89 % 999,6 hPa 0,0 l/m 0,0 km/h (0 Bft) O-NO 67 0 min 0,000 mm 5 W/m 0,6 C 2,2 C 1,6 km/h (1 Bft) 97 %
19.01.2014 08:30 2,1 C 2,1 C 2,2 C 89 % 999,7 hPa 0,0 l/m 0,0 km/h (0 Bft) N 0 0 min 0,000 mm 9 W/m 0,5 C 2,1 C 0,0 km/h (0 Bft) 98 %
19.01.2014 08:40 2,1 C 2,1 C 2,1 C 89 % 999,7 hPa 0,0 l/m 0,0 km/h (0 Bft) O-NO 67 0 min 0,000 mm 14 W/m 0,5 C 2,1 C 3,2 km/h (1 Bft) 97 %
19.01.2014 08:50 2,1 C 2,0 C 2,1 C 89 % 999,7 hPa 0,0 l/m 0,0 km/h (0 Bft) O-NO 67 0 min 0,000 mm 18 W/m 0,5 C 2,1 C 1,6 km/h (1 Bft) 98 %
19.01.2014 09:00 2,2 C 2,1 C 2,2 C 89 % 999,7 hPa 0,0 l/m 1,6 km/h (1 Bft) O-NO 67 0 min 0,000 mm 25 W/m 0,6 C 2,2 C 3,2 km/h (1 Bft) 84 %
19.01.2014 09:10 2,2 C 2,2 C 2,2 C 89 % 999,7 hPa 0,0 l/m 0,0 km/h (0 Bft) NO 45 0 min 0,000 mm 30 W/m 0,6 C 2,2 C 3,2 km/h (1 Bft) 97 %
19.01.2014 09:20 2,3 C 2,2 C 2,3 C 89 % 999,6 hPa 0,0 l/m 1,6 km/h (1 Bft) NO 45 0 min 0,000 mm 33 W/m 0,7 C 2,3 C 6,4 km/h (2 Bft) 98 %
19.01.2014 09:30 2,3 C 2,2 C 2,3 C 89 % 999,9 hPa 0,0 l/m 0,0 km/h (0 Bft) NW 315 0 min 0,000 mm 33 W/m 0,7 C 2,3 C 3,2 km/h (1 Bft) 97 %
19.01.2014 09:40 2,3 C 2,3 C 2,3 C 89 % 999,9 hPa 0,0 l/m 0,0 km/h (0 Bft) NO 45 0 min 0,000 mm 39 W/m 0,7 C 2,3 C 3,2 km/h (1 Bft) 98 %
19.01.2014 09:50 2,3 C 2,3 C 2,3 C 89 % 999,9 hPa 0,0 l/m 0,0 km/h (0 Bft) N-NO 22 0 min 0,000 mm 49 W/m 0,7 C 2,3 C 6,4 km/h (2 Bft) 97 %
19.01.2014 10:00 2,3 C 2,3 C 2,3 C 89 % 999,9 hPa 0,0 l/m 0,0 km/h (0 Bft) N 360 0 min 0,025 mm 49 W/m 0,7 C 2,3 C 4,8 km/h (1 Bft) 97 %
19.01.2014 10:10 2,3 C 2,3 C 2,3 C 89 % 1000,0 hPa 0,0 l/m 0,0 km/h (0 Bft) N-NW 337 0 min 0,000 mm 53 W/m 0,7 C 2,3 C 4,8 km/h (1 Bft) 98 %
19.01.2014 10:20 2,4 C 2,3 C 2,4 C 89 % 1000,1 hPa 0,0 l/m 0,0 km/h (0 Bft) NO 45 0 min 0,000 mm 58 W/m 0,8 C 2,4 C 3,2 km/h (1 Bft) 98 %
19.01.2014 10:30 2,6 C 2,4 C 2,6 C 89 % 1000,1 hPa 0,0 l/m 0,0 km/h (0 Bft) W-NW 292 0 min 0,000 mm 63 W/m 1,0 C 2,6 C 3,2 km/h (1 Bft) 98 %
19.01.2014 10:40 2,6 C 2,6 C 2,6 C 89 % 1000,3 hPa 0,0 l/m 1,6 km/h (1 Bft) N-NO 22 0 min 0,000 mm 65 W/m 1,0 C 2,6 C 4,8 km/h (1 Bft) 97 %
19.01.2014 10:50 2,6 C 2,6 C 2,6 C 89 % 1000,4 hPa 0,0 l/m 0,0 km/h (0 Bft) NO 45 0 min 0,000 mm 72 W/m 1,0 C 2,6 C 4,8 km/h (1 Bft) 98 %
19.01.2014 11:00 2,6 C 2,6 C 2,6 C 89 % 1000,4 hPa 0,0 l/m 0,0 km/h (0 Bft) NO 45 0 min 0,025 mm 67 W/m 1,0 C 2,6 C 3,2 km/h (1 Bft) 97 %
19.01.2014 11:10 2,7 C 2,6 C 2,7 C 89 % 1000,5 hPa 0,0 l/m 0,0 km/h (0 Bft) NO 45 0 min 0,000 mm 93 W/m 1,1 C 2,7 C 1,6 km/h (1 Bft) 97 %
19.01.2014 11:20 2,8 C 2,7 C 2,8 C 89 % 1000,4 hPa 0,0 l/m 0,0 km/h (0 Bft) NO 45 0 min 0,000 mm 114 W/m 1,2 C 2,8 C 1,6 km/h (1 Bft) 98 %
19.01.2014 11:30 2,9 C 2,8 C 2,9 C 89 % 1000,1 hPa 0,0 l/m 1,6 km/h (1 Bft) NO 45 0 min 0,000 mm 118 W/m 1,3 C 2,9 C 6,4 km/h (2 Bft) 98 %
19.01.2014 11:40 2,9 C 2,9 C 2,9 C 89 % 1000,1 hPa 0,0 l/m 0,0 km/h (0 Bft) N-NO 22 0 min 0,000 mm 69 W/m 1,3 C 2,9 C 3,2 km/h (1 Bft) 98 %
19.01.2014 11:50 2,8 C 2,8 C 2,9 C 89 % 1000,0 hPa 0,0 l/m 3,2 km/h (1 Bft) NO 45 0 min 0,000 mm 148 W/m 1,2 C 2,8 C 6,4 km/h (2 Bft) 97 %
19.01.2014 12:00 2,9 C 2,8 C 2,9 C 89 % 1000,0 hPa 0,0 l/m 1,6 km/h (1 Bft) NO 45 10 min 0,051 mm 190 W/m 1,3 C 2,9 C 4,8 km/h (1 Bft) 97 %
19.01.2014 12:10 3,1 C 2,9 C 3,1 C 89 % 999,9 hPa 0,0 l/m 0,0 km/h (0 Bft) NO 45 10 min 0,000 mm 155 W/m 1,5 C 3,1 C 3,2 km/h (1 Bft) 98 %
19.01.2014 12:20 3,3 C 3,1 C 3,3 C 89 % 999,7 hPa 0,0 l/m 1,6 km/h (1 Bft) N-NO 22 0 min 0,000 mm 144 W/m 1,7 C 3,3 C 6,4 km/h (2 Bft) 97 %
19.01.2014 12:30 3,4 C 3,3 C 3,4 C 89 % 999,8 hPa 0,0 l/m 0,0 km/h (0 Bft) N-NW 337 0 min 0,000 mm 125 W/m 1,8 C 3,4 C 4,8 km/h (1 Bft) 89 %
19.01.2014 12:40 3,4 C 3,4 C 3,4 C 89 % 999,9 hPa 0,0 l/m 1,6 km/h (1 Bft) O-NO 67 0 min 0,000 mm 127 W/m 1,8 C 3,4 C 6,4 km/h (2 Bft) 97 %
19.01.2014 12:50 3,4 C 3,3 C 3,4 C 89 % 999,9 hPa 0,0 l/m 0,0 km/h (0 Bft) O 90 0 min 0,000 mm 100 W/m 1,8 C 3,4 C 1,6 km/h (1 Bft) 98 %
19.01.2014 13:00 3,5 C 3,4 C 3,5 C 89 % 999,9 hPa 0,0 l/m 0,0 km/h (0 Bft) O 90 0 min 0,051 mm 97 W/m 1,9 C 3,5 C 3,2 km/h (1 Bft) 97 %
19.01.2014 13:10 3,5 C 3,5 C 3,5 C 88 % 999,9 hPa 0,0 l/m 0,0 km/h (0 Bft) N 360 0 min 0,000 mm 60 W/m 1,7 C 3,5 C 4,8 km/h (1 Bft) 98 %
19.01.2014 13:20 3,5 C 3,5 C 3,5 C 89 % 999,8 hPa 0,0 l/m 0,0 km/h (0 Bft) N-NW 337 0 min 0,000 mm 72 W/m 1,9 C 3,5 C 3,2 km/h (1 Bft) 98 %
19.01.2014 13:30 3,5 C 3,5 C 3,6 C 88 % 999,9 hPa 0,0 l/m 0,0 km/h (0 Bft) N 360 0 min 0,000 mm 95 W/m 1,7 C 3,5 C 1,6 km/h (1 Bft) 98 %
19.01.2014 13:40 3,6 C 3,5 C 3,6 C 89 % 999,9 hPa 0,0 l/m 0,0 km/h (0 Bft) N 360 0 min 0,000 mm 70 W/m 2,0 C 3,6 C 1,6 km/h (1 Bft) 98 %
19.01.2014 13:50 3,5 C 3,5 C 3,6 C 89 % 999,8 hPa 0,0 l/m 0,0 km/h (0 Bft) N-NO 22 0 min 0,000 mm 81 W/m 1,9 C 3,5 C 4,8 km/h (1 Bft) 97 %
19.01.2014 14:00 3,3 C 3,3 C 3,6 C 89 % 999,8 hPa 0,0 l/m 0,6 km/h (0 Bft) O 80 0 min 0,026 mm 62 W/m 1,7 C 3,3 C 3,2 km/h (1 Bft) 99 %
19.01.2014 14:10 3,3 C 3,3 C 3,3 C 89 % 999,7 hPa 0,0 l/m 0,3 km/h (0 Bft) O-NO 67 0 min 0,000 mm 63 W/m 1,7 C 3,3 C 3,2 km/h (1 Bft) 100 %
19.01.2014 14:20 3,2 C 3,2 C 3,3 C 89 % 999,7 hPa 0,0 l/m 0,7 km/h (0 Bft) N-NO 27 0 min 0,000 mm 58 W/m 1,6 C 3,2 C 4,8 km/h (1 Bft) 100 %
19.01.2014 14:30 3,2 C 3,2 C 3,2 C 89 % 999,8 hPa 0,0 l/m 1,5 km/h (1 Bft) N-NO 20 0 min 0,000 mm 53 W/m 1,6 C 3,2 C 9,7 km/h (2 Bft) 100 %
19.01.2014 14:40 3,1 C 3,1 C 3,2 C 89 % 999,8 hPa 0,0 l/m 0,8 km/h (0 Bft) O-NO 62 0 min 0,000 mm 53 W/m 1,5 C 3,1 C 4,8 km/h (1 Bft) 91 %
19.01.2014 14:50 3,1 C 3,1 C 3,1 C 89 % 999,6 hPa 0,0 l/m 1,4 km/h (1 Bft) NO 38 0 min 0,000 mm 53 W/m 1,5 C 3,1 C 4,8 km/h (1 Bft) 100 %
19.01.2014 15:00 3,1 C 3,1 C 3,1 C 89 % 999,8 hPa 0,0 l/m 0,1 km/h (0 Bft) NO 51 0 min 0,025 mm 44 W/m 1,5 C 3,1 C 3,2 km/h (1 Bft) 100 %
19.01.2014 15:10 3,2 C 3,1 C 3,2 C 89 % 999,9 hPa 0,0 l/m 0,4 km/h (0 Bft) NW 319 0 min 0,000 mm 33 W/m 1,6 C 3,2 C 4,8 km/h (1 Bft) 100 %
19.01.2014 15:20 3,2 C 3,1 C 3,2 C 89 % 1000,1 hPa 0,0 l/m 0,2 km/h (0 Bft) N-NO 27 0 min 0,000 mm 30 W/m 1,6 C 3,2 C 3,2 km/h (1 Bft) 100 %
19.01.2014 15:30 3,1 C 3,1 C 3,2 C 89 % 1000,2 hPa 0,0 l/m 0,3 km/h (0 Bft) O-NO 70 0 min 0,000 mm 30 W/m 1,5 C 3,1 C 4,8 km/h (1 Bft) 99 %
19.01.2014 15:40 3,0 C 3,0 C 3,1 C 89 % 1000,1 hPa 0,0 l/m 0,7 km/h (0 Bft) O-NO 59 0 min 0,000 mm 32 W/m 1,4 C 3,0 C 4,8 km/h (1 Bft) 100 %
19.01.2014 15:50 3,0 C 3,0 C 3,1 C 89 % 1000,1 hPa 0,0 l/m 0,2 km/h (0 Bft) O-NO 65 0 min 0,000 mm 37 W/m 1,4 C 3,0 C 3,2 km/h (1 Bft) 99 %
19.01.2014 16:00 3,0 C 3,0 C 3,1 C 89 % 1000,0 hPa 0,0 l/m 0,3 km/h (0 Bft) N-NO 30 0 min 0,026 mm 30 W/m 1,4 C 3,0 C 4,8 km/h (1 Bft) 97 %
19.01.2014 16:10 3,0 C 3,0 C 3,0 C 89 % 1000,3 hPa 0,0 l/m 0,2 km/h (0 Bft) N-NO 18 0 min 0,000 mm 21 W/m 1,4 C 3,0 C 1,6 km/h (1 Bft) 100 %
19.01.2014 16:20 2,9 C 2,9 C 3,0 C 89 % 1000,4 hPa 0,0 l/m 0,5 km/h (0 Bft) NO 37 0 min 0,000 mm 9 W/m 1,3 C 2,9 C 4,8 km/h (1 Bft) 99 %
19.01.2014 16:30 2,9 C 2,9 C 2,9 C 89 % 1000,4 hPa 0,0 l/m 0,5 km/h (0 Bft) NO 35 0 min 0,000 mm 5 W/m 1,3 C 2,9 C 6,4 km/h (2 Bft) 98 %
19.01.2014 16:40 2,8 C 2,8 C 2,9 C 89 % 1000,5 hPa 0,0 l/m 0,8 km/h (0 Bft) NO 34 0 min 0,000 mm 0 W/m 1,2 C 2,8 C 3,2 km/h (1 Bft) 100 %
19.01.2014 16:50 2,7 C 2,7 C 2,8 C 89 % 1000,4 hPa 0,0 l/m 0,8 km/h (0 Bft) NO 34 0 min 0,000 mm 0 W/m 1,1 C 2,7 C 4,8 km/h (1 Bft) 100 %
19.01.2014 17:00 2,6 C 2,6 C 2,7 C 89 % 1000,5 hPa 0,0 l/m 0,0 km/h (0 Bft) NO 34 0 min 0,000 mm 0 W/m 1,0 C 2,6 C 1,6 km/h (1 Bft) 100 %
19.01.2014 17:10 2,6 C 2,6 C 2,7 C 89 % 1000,4 hPa 0,0 l/m 0,4 km/h (0 Bft) NO 42 0 min 0,000 mm 0 W/m 1,0 C 2,6 C 4,8 km/h (1 Bft) 99 %
19.01.2014 17:20 2,6 C 2,5 C 2,6 C 89 % 1000,5 hPa 0,0 l/m 0,4 km/h (0 Bft) NO 42 0 min 0,000 mm 0 W/m 1,0 C 2,6 C 3,2 km/h (1 Bft) 91 %
19.01.2014 17:30 2,5 C 2,5 C 2,6 C 89 % 1000,5 hPa 0,0 l/m 0,5 km/h (0 Bft) O 98 0 min 0,000 mm 0 W/m 0,9 C 2,5 C 6,4 km/h (2 Bft) 100 %
19.01.2014 17:40 2,5 C 2,4 C 2,5 C 89 % 1000,5 hPa 0,0 l/m 0,0 km/h (0 Bft) O 98 0 min 0,000 mm 0 W/m 0,9 C 2,5 C 0,0 km/h (0 Bft) 99 %
19.01.2014 17:50 2,5 C 2,5 C 2,5 C 89 % 1000,5 hPa 0,0 l/m 0,0 km/h (0 Bft) O 98 0 min 0,000 mm 0 W/m 0,9 C 2,5 C 0,0 km/h (0 Bft) 99 %
19.01.2014 18:00 2,5 C 2,5 C 2,6 C 89 % 1000,5 hPa 0,0 l/m 0,2 km/h (0 Bft) N-NW 341 0 min 0,000 mm 0 W/m 0,9 C 2,5 C 3,2 km/h (1 Bft) 99 %
19.01.2014 18:10 2,6 C 2,5 C 2,6 C 89 % 1000,4 hPa 0,0 l/m 1,0 km/h (0 Bft) NW 319 0 min 0,000 mm 0 W/m 1,0 C 2,6 C 3,2 km/h (1 Bft) 90 %
19.01.2014 18:20 2,6 C 2,6 C 2,6 C 89 % 1000,4 hPa 0,0 l/m 0,2 km/h (0 Bft) N 355 0 min 0,000 mm 0 W/m 1,0 C 2,6 C 4,8 km/h (1 Bft) 99 %
19.01.2014 18:30 2,6 C 2,6 C 2,6 C 89 % 1000,5 hPa 0,0 l/m 0,1 km/h (0 Bft) N 355 0 min 0,000 mm 0 W/m 1,0 C 2,6 C 3,2 km/h (1 Bft) 98 %
19.01.2014 18:40 2,5 C 2,5 C 2,6 C 89 % 1000,4 hPa 0,0 l/m 0,1 km/h (0 Bft) N 355 0 min 0,000 mm 0 W/m 0,9 C 2,5 C 3,2 km/h (1 Bft) 98 %
19.01.2014 18:50 2,5 C 2,5 C 2,6 C 89 % 1000,6 hPa 0,0 l/m 0,0 km/h (0 Bft) N 355 0 min 0,000 mm 0 W/m 0,9 C 2,5 C 0,0 km/h (0 Bft) 97 %
19.01.2014 19:00 2,5 C 2,5 C 2,5 C 89 % 1000,3 hPa 0,0 l/m 0,2 km/h (0 Bft) N 355 0 min 0,000 mm 0 W/m 0,9 C 2,5 C 1,6 km/h (1 Bft) 97 %
19.01.2014 19:10 2,4 C 2,4 C 2,5 C 89 % 1000,3 hPa 0,0 l/m 0,0 km/h (0 Bft) N 355 0 min 0,000 mm 0 W/m 0,8 C 2,4 C 0,0 km/h (0 Bft) 98 %
19.01.2014 19:20 2,4 C 2,4 C 2,4 C 89 % 1000,2 hPa 0,0 l/m 0,0 km/h (0 Bft) N 355 0 min 0,000 mm 0 W/m 0,8 C 2,4 C 0,0 km/h (0 Bft) 97 %
19.01.2014 19:30 2,4 C 2,4 C 2,4 C 89 % 1000,3 hPa 0,0 l/m 0,3 km/h (0 Bft) N 355 0 min 0,000 mm 0 W/m 0,8 C 2,4 C 3,2 km/h (1 Bft) 98 %
19.01.2014 19:40 2,3 C 2,3 C 2,4 C 89 % 1000,5 hPa 0,0 l/m 0,3 km/h (0 Bft) O-NO 57 0 min 0,000 mm 0 W/m 0,7 C 2,3 C 1,6 km/h (1 Bft) 97 %
19.01.2014 19:50 2,2 C 2,2 C 2,3 C 89 % 1000,3 hPa 0,0 l/m 0,0 km/h (0 Bft) O-NO 57 0 min 0,000 mm 0 W/m 0,6 C 2,2 C 0,0 km/h (0 Bft) 97 %
19.01.2014 20:00 2,1 C 2,1 C 2,2 C 89 % 1000,5 hPa 0,0 l/m 0,0 km/h (0 Bft) O-NO 57 0 min 0,000 mm 0 W/m 0,5 C 2,1 C 0,0 km/h (0 Bft) 97 %
19.01.2014 20:10 2,0 C 2,0 C 2,1 C 89 % 1000,3 hPa 0,0 l/m 0,0 km/h (0 Bft) O-NO 57 0 min 0,000 mm 0 W/m 0,4 C 2,0 C 0,0 km/h (0 Bft) 98 %
19.01.2014 20:20 1,9 C 1,9 C 2,0 C 89 % 1000,4 hPa 0,0 l/m 0,3 km/h (0 Bft) O-NO 57 0 min 0,000 mm 0 W/m 0,3 C 1,9 C 1,6 km/h (1 Bft) 97 %
19.01.2014 20:30 1,9 C 1,9 C 1,9 C 89 % 1000,5 hPa 0,0 l/m 0,0 km/h (0 Bft) O-NO 57 0 min 0,000 mm 0 W/m 0,3 C 1,9 C 0,0 km/h (0 Bft) 89 %
19.01.2014 20:40 1,8 C 1,8 C 1,9 C 89 % 1000,5 hPa 0,0 l/m 0,0 km/h (0 Bft) O-NO 57 0 min 0,000 mm 0 W/m 0,2 C 1,8 C 0,0 km/h (0 Bft) 98 %
19.01.2014 20:50 1,8 C 1,8 C 1,8 C 89 % 1000,7 hPa 0,0 l/m 0,1 km/h (0 Bft) NO 50 0 min 0,000 mm 0 W/m 0,2 C 1,8 C 1,6 km/h (1 Bft) 97 %
19.01.2014 21:00 1,8 C 1,8 C 1,8 C 89 % 1000,6 hPa 0,0 l/m 0,2 km/h (0 Bft) N-NW 328 0 min 0,000 mm 0 W/m 0,2 C 1,8 C 1,6 km/h (1 Bft) 97 %
19.01.2014 21:10 1,8 C 1,8 C 1,8 C 89 % 1000,6 hPa 0,0 l/m 1,6 km/h (1 Bft) N-NW 337 0 min 0,000 mm 0 W/m 0,2 C 1,8 C 4,8 km/h (1 Bft) 100 %
19.01.2014 21:20 1,7 C 1,7 C 1,8 C 88 % 1000,6 hPa 0,0 l/m 0,0 km/h (0 Bft) W-NW 292 0 min 0,000 mm 0 W/m -0,1 C 1,7 C 4,8 km/h (1 Bft) 99 %
19.01.2014 21:30 1,6 C 1,6 C 1,7 C 89 % 1000,7 hPa 0,0 l/m 0,0 km/h (0 Bft) W 270 0 min 0,000 mm 0 W/m -0,0 C 1,6 C 6,4 km/h (2 Bft) 88 %
19.01.2014 21:40 1,4 C 1,4 C 1,7 C 89 % 1000,7 hPa 0,0 l/m 0,0 km/h (0 Bft) W 270 0 min 0,000 mm 0 W/m -0,2 C 1,4 C 4,8 km/h (1 Bft) 100 %
19.01.2014 21:50 1,4 C 1,4 C 1,4 C 89 % 1000,7 hPa 0,0 l/m 0,0 km/h (0 Bft) N 0 0 min 0,000 mm 0 W/m -0,2 C 1,4 C 0,0 km/h (0 Bft) 100 %
19.01.2014 22:00 1,4 C 1,4 C 1,4 C 89 % 1000,6 hPa 0,0 l/m 0,0 km/h (0 Bft) W 270 0 min 0,000 mm 0 W/m -0,2 C 1,4 C 1,6 km/h (1 Bft) 100 %
19.01.2014 22:10 1,4 C 1,4 C 1,4 C 89 % 1000,5 hPa 0,0 l/m 0,0 km/h (0 Bft) N 0 0 min 0,000 mm 0 W/m -0,2 C 1,4 C 0,0 km/h (0 Bft) 100 %
19.01.2014 22:20 1,4 C 1,4 C 1,4 C 88 % 1000,3 hPa 0,0 l/m 0,0 km/h (0 Bft) W 270 0 min 0,000 mm 0 W/m -0,4 C 1,4 C 3,2 km/h (1 Bft) 100 %
19.01.2014 22:30 1,4 C 1,4 C 1,4 C 88 % 1000,3 hPa 0,0 l/m 0,0 km/h (0 Bft) W 270 0 min 0,000 mm 0 W/m -0,4 C 1,4 C 3,2 km/h (1 Bft) 99 %
19.01.2014 22:40 1,4 C 1,4 C 1,4 C 88 % 1000,4 hPa 0,0 l/m 0,0 km/h (0 Bft) W 270 0 min 0,000 mm 0 W/m -0,4 C 1,4 C 3,2 km/h (1 Bft) 100 %
19.01.2014 22:50 1,4 C 1,4 C 1,4 C 88 % 1000,5 hPa 0,0 l/m 0,0 km/h (0 Bft) W 270 0 min 0,000 mm 0 W/m -0,4 C 1,4 C 3,2 km/h (1 Bft) 100 %
19.01.2014 23:00 1,4 C 1,4 C 1,4 C 88 % 1000,6 hPa 0,0 l/m 0,0 km/h (0 Bft) W 270 0 min 0,000 mm 0 W/m -0,4 C 1,4 C 4,8 km/h (1 Bft) 90 %
19.01.2014 23:10 1,4 C 1,4 C 1,4 C 88 % 1000,6 hPa 0,0 l/m 0,0 km/h (0 Bft) N 0 0 min 0,000 mm 0 W/m -0,4 C 1,4 C 0,0 km/h (0 Bft) 100 %
19.01.2014 23:20 1,4 C 1,4 C 1,4 C 88 % 1000,6 hPa 0,0 l/m 0,0 km/h (0 Bft) N 0 0 min 0,000 mm 0 W/m -0,4 C 1,4 C 0,0 km/h (0 Bft) 100 %
19.01.2014 23:30 1,4 C 1,4 C 1,4 C 88 % 1000,3 hPa 0,0 l/m 0,0 km/h (0 Bft) W 270 0 min 0,000 mm 0 W/m -0,4 C 1,4 C 3,2 km/h (1 Bft) 100 %
19.01.2014 23:40 1,4 C 1,4 C 1,4 C 88 % 1000,3 hPa 0,0 l/m 0,0 km/h (0 Bft) N 0 0 min 0,000 mm 0 W/m -0,4 C 1,4 C 0,0 km/h (0 Bft) 99 %
19.01.2014 23:50 1,4 C 1,4 C 1,4 C 88 % 1000,3 hPa 0,0 l/m 0,0 km/h (0 Bft) W 270 0 min 0,000 mm 0 W/m -0,4 C 1,4 C 1,6 km/h (1 Bft) 100 %
_ Min-Zeit 21:40 21:40 21:50 13:10 06:20 - 00:00 - - - - - 22:20 21:40 03:40 09:00
Minimum _ 1,4 C 1,4 C 1,4 C 88 % 998,9 hPa - 0,0 km/h (0 Bft) - - - - - -0,4 C 1,4 C 0,0 km/h (0 Bft) 84 %
_ Max-Zeit 13:30 13:10 13:30 00:00 20:50 00:00 11:50 - - 12:00 12:00 12:00 13:40 13:40 00:40 00:00
Maximum _ 3,6 C 3,5 C 3,6 C 89 % 1000,7 hPa 0,0 l/m 3,2 km/h
NO (1 Bft)
- - 10 min 0,051 mm 190 W/m 2,0 C 3,6 C 17,7 km/h
O (3 Bft)
100 %
Durchschnitt _ 2,5 C 2,4 C 2,5 C 89 % 1000,0 hPa #0,0 l/m 0,3 km/h (0 Bft) NO - #20 min. #0,229 mm 63 W/m 0,8 C 2,5 C 3,7 km/h (1 Bft) 98 %
PRIVATE WETTERSTATION BILLIGHEIM-ALLFELD - www.neckar-odenwald-wetter.de - Holger Sonntag